Location: Haliburton Scout Reserve
(45.0900°N, 78.3200°W)
Time: 09:31:59
(UTC-04:00)

S-56A Canister/Altair - Pass Details

Date: 07 February 2023
Orbit: 638 x 2493 km, 38.9° (Epoch: 25 March)

Event Time Altitude Azimuth Distance (km) Brightness Sun altitude
Rises 14:34:43 0° 269° (W) 3,175 11.2 23.2°
Reaches altitude 10° 14:37:10 10° 257° (WSW) 2,397 10.9 22.9°
Maximum altitude 14:41:51 27° 199° (SSW) 1,778 11.4 22.4°
Drops below altitude 10° 14:48:06 10° 145° (SE) 3,260 11.0 21.8°
Sets 14:52:03 0° 135° (SE) 4,573 11.6 21.4°
